Weather History for Prestonsburg, KY

Change the Weather History Date:

Monday, May 6, 2013

  Actual Average (KJKL) Record (KJKL)
Temperature  
Mean Temperature 58 °F 62 °F  
Max Temperature 66 °F 73 °F 88 °F (1986)
Min Temperature 51 °F 52 °F 37 °F (1989)
Degree Days  
Heating Degree Days 7 4  
Month to date heating degree days 28  
Since 1 July heating degree days 4149  
Cooling Degree Days 0 2  
Month to date cooling degree days 12  
Year to date cooling degree days 58  
Growing Degree Days 8 (Base 50)    
Moisture  
Dew Point 54 °F    
Average Humidity 89    
Maximum Humidity 99    
Minimum Humidity 73    
Precipitation  
Precipitation 0.00 in 0.15 in 2.42 in (1984)
Month to date precipitation 0.93  
Year to date precipitation 16.24  
Snow  
Snow 0.00 in 0.00 in - ()
Month to date snowfall 0.0  
Since 1 July snowfall 23.5  
Snow Depth -    
Sea Level Pressure  
Sea Level Pressure 29.87 in    
Wind  
Wind Speed 5 mph (ENE)    
Max Wind Speed 13 mph    
Max Gust Speed 22 mph    
Visibility 9 miles    
Events Rain    
T = Trace of Precipitation, MM = Missing Value Source: NWS Daily Summary

Daily Weather History Graph

Daily Weather History Graph

Search for Another Location

Airport:

Trip Planner

Search our weather history database for the weather conditions in past years. The results will help you decide how hot, cold, wet, or windy it might be!

Date:

Astronomy

May. 06, 2013 Rise Set
Actual Time 6:29 AM EDT 8:25 PM EDT
Civil Twilight 6:00 AM EDT 8:54 PM EDT
Nautical Twilight 5:25 AM EDT 9:29 PM EDT
Astronomical Twilight 4:48 AM EDT 10:07 PM EDT
Moon 4:26 AM EDT (5/6) 5:27 PM EDT (5/6)
Length of Visible Light 14h 54m
Length of Day
13h 56m
Waning Crescent, 11% of the Moon is Illuminated
May 6
Waning Crescent
May 9
New
May 18
First Quarter
May 25
Full
May 31
Last Quarter

Hourly Weather History & Observations

Time (EDT) Temp. Dew Point Humidity Pressure Visibility Wind Dir Wind Speed Gust Speed Precip Events Conditions
12:15 AM 52.3 °F 51.8 °F 98% 29.89 in 10.0 mi NE 3.5 mph - N/A   Overcast
12:35 AM 52.3 °F 51.8 °F 98% 29.88 in 10.0 mi NE 5.8 mph - N/A   Overcast
12:55 AM 52.0 °F 51.6 °F 99% 29.87 in 10.0 mi NNE 3.5 mph - N/A   Mostly Cloudy
1:15 AM 51.8 °F 51.3 °F 98% 29.87 in 10.0 mi NE 3.5 mph - N/A   Scattered Clouds
1:35 AM 51.6 °F 51.3 °F 99% 29.87 in 10.0 mi NE 4.6 mph - N/A   Scattered Clouds
1:55 AM 51.8 °F 51.3 °F 98% 29.86 in 10.0 mi ENE 4.6 mph - N/A   Scattered Clouds
2:35 AM 52.2 °F 51.3 °F 97% 29.84 in 10.0 mi ENE 4.6 mph - N/A   Overcast
3:15 AM 51.4 °F 50.9 °F 98% 29.83 in 10.0 mi NNE 4.6 mph - N/A   Scattered Clouds
3:35 AM 51.4 °F 50.9 °F 98% 29.83 in 10.0 mi NE 4.6 mph - N/A   Scattered Clouds
3:55 AM 51.8 °F 50.9 °F 97% 29.83 in 10.0 mi NE 5.8 mph - N/A   Mostly Cloudy
4:15 AM 51.8 °F 50.9 °F 97% 29.83 in 10.0 mi NE 5.8 mph - N/A   Mostly Cloudy
4:35 AM 51.3 °F 50.5 °F 97% 29.83 in 10.0 mi NE 4.6 mph - N/A   Mostly Cloudy
4:55 AM 51.8 °F 50.9 °F 97% 29.84 in 10.0 mi ENE 3.5 mph - N/A   Overcast
5:15 AM 51.3 °F 50.7 °F 98% 29.84 in 10.0 mi ENE 4.6 mph - N/A   Mostly Cloudy
5:35 AM 53.1 °F 50.5 °F 91% 29.85 in 10.0 mi East 4.6 mph - N/A   Overcast
5:55 AM 55.2 °F 50.2 °F 83% 29.86 in 10.0 mi ESE 6.9 mph - N/A   Overcast
6:15 AM 56.1 °F 50.2 °F 80% 29.86 in 10.0 mi ESE 6.9 mph - N/A   Mostly Cloudy
6:35 AM 55.9 °F 50.5 °F 82% 29.86 in 10.0 mi East 5.8 mph - N/A Rain Light Rain
6:55 AM 53.6 °F 50.9 °F 91% 29.86 in 10.0 mi ESE 3.5 mph - N/A   Overcast
7:15 AM 52.2 °F 51.3 °F 97% 29.87 in 10.0 mi NNE 4.6 mph - N/A   Overcast
7:35 AM 52.7 °F 51.4 °F 95% 29.88 in 10.0 mi NE 4.6 mph - N/A   Overcast
7:55 AM 53.2 °F 51.8 °F 95% 29.88 in 10.0 mi Calm Calm - N/A   Drizzle
8:15 AM 53.1 °F 51.8 °F 95% 29.88 in 10.0 mi NNE 3.5 mph - N/A Rain Light Rain
8:35 AM 52.9 °F 51.8 °F 96% 29.88 in 10.0 mi Calm Calm - N/A Rain Light Rain
8:55 AM 53.2 °F 52.2 °F 96% 29.89 in 7.0 mi Calm Calm - N/A   Light Drizzle
9:35 AM 53.2 °F 52.7 °F 98% 29.89 in 5.0 mi NE 3.5 mph - N/A Rain Rain
9:55 AM 53.6 °F 52.9 °F 97% 29.90 in 4.0 mi Calm Calm - N/A Rain Rain
10:15 AM 54.0 °F 53.1 °F 97% 29.90 in 7.0 mi Calm Calm - N/A Rain Light Rain
10:35 AM 54.5 °F 53.6 °F 97% 29.90 in 5.0 mi Calm Calm - N/A Rain Rain
10:55 AM 54.5 °F 53.6 °F 97% 29.90 in 4.0 mi North 3.5 mph - N/A Rain Rain
11:15 AM 55.6 °F 54.9 °F 97% 29.91 in 7.0 mi Calm Calm - N/A Rain Rain
11:35 AM 55.6 °F 54.7 °F 97% 29.92 in 2.5 mi Calm Calm - N/A   Drizzle
11:55 AM 56.5 °F 55.6 °F 97% 29.92 in 3.0 mi NNE 3.5 mph - N/A Rain Rain
12:15 PM 57.6 °F 56.7 °F 97% 29.90 in 7.0 mi NE 6.9 mph - N/A   Light Drizzle
12:35 PM 58.5 °F 57.0 °F 95% 29.90 in 10.0 mi ENE 8.1 mph - N/A   Overcast
12:55 PM 59.4 °F 57.2 °F 93% 29.90 in 10.0 mi ENE 10.4 mph - N/A   Overcast
1:15 PM 60.3 °F 57.7 °F 91% 29.89 in 10.0 mi ENE 9.2 mph - N/A   Overcast
1:35 PM 61.3 °F 57.4 °F 87% 29.89 in 10.0 mi ESE 8.1 mph - N/A   Overcast
1:55 PM 61.7 °F 57.6 °F 86% 29.89 in 10.0 mi East 9.2 mph - N/A Rain Light Rain
2:15 PM 62.6 °F 57.6 °F 84% 29.89 in 10.0 mi ENE 8.1 mph - N/A   Overcast
2:35 PM 62.2 °F 56.8 °F 82% 29.88 in 10.0 mi ENE 10.4 mph - N/A   Overcast
2:55 PM 64.4 °F 57.6 °F 78% 29.87 in 10.0 mi ENE 11.5 mph 20.7 mph N/A   Mostly Cloudy
3:15 PM 64.4 °F 56.8 °F 76% 29.87 in 10.0 mi East 8.1 mph 21.9 mph N/A   Mostly Cloudy
3:35 PM 63.9 °F 56.3 °F 76% 29.87 in 10.0 mi ENE 9.2 mph 21.9 mph N/A   Overcast
3:55 PM 65.8 °F 57.0 °F 73% 29.85 in 10.0 mi East 10.4 mph 16.1 mph N/A   Overcast
4:15 PM 64.4 °F 56.3 °F 75% 29.85 in 10.0 mi ENE 10.4 mph 20.7 mph N/A   Overcast
4:35 PM 64.4 °F 55.6 °F 73% 29.85 in 10.0 mi East 12.7 mph 20.7 mph N/A   Overcast
4:55 PM 63.5 °F 54.9 °F 73% 29.86 in 10.0 mi ENE 6.9 mph 16.1 mph N/A   Overcast
5:15 PM 62.8 °F 54.7 °F 75% 29.86 in 10.0 mi East 8.1 mph 20.7 mph N/A   Overcast
5:35 PM 64.0 °F 55.9 °F 75% 29.85 in 10.0 mi ENE 9.2 mph - N/A   Overcast
5:55 PM 63.1 °F 55.6 °F 76% 29.86 in 10.0 mi East 8.1 mph - N/A   Overcast
6:15 PM 63.3 °F 55.4 °F 75% 29.84 in 10.0 mi ENE 10.4 mph 17.3 mph N/A   Mostly Cloudy
6:55 PM 61.9 °F 55.2 °F 79% 29.83 in 10.0 mi NE 10.4 mph 17.3 mph N/A   Clear
7:15 PM 61.0 °F 54.9 °F 80% 29.85 in 10.0 mi East 5.8 mph - N/A   Mostly Cloudy
7:35 PM 60.6 °F 54.5 °F 80% 29.85 in 10.0 mi ENE 6.9 mph - N/A   Overcast
7:55 PM 59.9 °F 54.0 °F 81% 29.86 in 10.0 mi ENE 8.1 mph - N/A   Overcast
8:15 PM 59.0 °F 54.0 °F 83% 29.86 in 10.0 mi NE 10.4 mph - N/A   Mostly Cloudy
8:35 PM 58.3 °F 53.6 °F 84% 29.86 in 10.0 mi NE 9.2 mph - N/A   Clear
8:55 PM 57.7 °F 53.8 °F 87% 29.87 in 10.0 mi NE 6.9 mph - N/A   Clear
9:15 PM 58.1 °F 53.6 °F 85% 29.89 in 10.0 mi NE 5.8 mph - N/A   Mostly Cloudy
9:35 PM 57.7 °F 52.9 °F 84% 29.90 in 10.0 mi ENE 5.8 mph - N/A   Overcast
9:55 PM 57.2 °F 52.7 °F 85% 29.89 in 10.0 mi North 5.8 mph - N/A   Drizzle
10:15 PM 57.0 °F 52.9 °F 86% 29.91 in 10.0 mi SE 4.6 mph - N/A Rain Light Rain
10:35 PM 55.8 °F 53.6 °F 92% 29.91 in 10.0 mi NNE 5.8 mph - N/A Rain Light Rain
10:55 PM 55.0 °F 53.6 °F 95% 29.92 in 10.0 mi ENE 4.6 mph - N/A   Mostly Cloudy
11:15 PM 54.9 °F 53.6 °F 96% 29.91 in 10.0 mi Calm Calm - N/A   Mostly Cloudy
11:35 PM 54.1 °F 52.9 °F 95% 29.91 in 10.0 mi ESE 4.6 mph - N/A   Scattered Clouds
11:55 PM 53.6 °F 52.3 °F 95% 29.91 in 10.0 mi ESE 3.5 mph - N/A   Mostly Cloudy